Lid_Strength_Index
2 2 2 2 2 2 2 2 2 1 1 1 1 1 1 1 1 5 9 5 5 -2 -2 6 6 7 7 8 10 12 15 17 15 14 13 11 10 9 8 8 7 6 8 5 2
3 2 2 2 2 2 2 2 2 1 1 1 1 1 1 1 6 8 2 -2 -1 -3 7 7 7 7 9 11 11 13 15 14 12 11 13 12 10 10 9 8 7 6 4 3 3
3 3 2 2 2 2 2 2 2 1 1 1 1 1 1 2 10 9 -1 -3 -3 -2 4 5 6 7 10 11 11 13 13 10 10 10 9 10 11 10 9 9 7 6 8 4 4
3 3 3 2 2 2 2 2 2 1 1 1 1 1 1 6 14 7 -3 -4 -4 0 4 6 8 10 11 11 11 10 10 9 9 9 10 10 9 9 9 8 5 5 5 5 5
3 3 3 3 2 2 2 2 2 2 2 1 1 0 5 7 8 4 -4 -0 4 4 6 8 8 10 11 10 10 11 10 9 9 10 10 8 9 9 9 6 6 6 5 5 8
3 3 3 3 2 2 2 2 2 2 2 1 1 1 6 10 5 4 5 4 5 6 6 7 7 9 10 10 11 10 10 10 10 10 10 10 9 8 8 7 6 7 7 6 5
3 3 3 3 2 2 2 3 3 2 2 1 0 3 6 7 3 5 6 6 6 6 6 7 7 7 9 10 9 10 10 10 10 10 11 9 10 9 7 7 7 7 7 7 7
3 3 3 3 2 2 2 2 2 2 1 0 0 5 8 4 4 5 5 5 5 5 6 6 6 8 9 9 9 10 12 14 10 9 9 9 13 9 8 8 8 8 8 7 7
3 3 3 3 2 2 3 3 2 1 0 0 6 7 8 3 5 4 6 6 5 5 5 4 6 9 8 11 12 13 14 14 11 10 10 11 12 9 8 8 9 8 9 8 8
3 3 3 3 3 3 3 3 2 2 2 2 5 9 6 7 5 5 5 4 5 5 6 7 9 11 12 12 15 15 14 13 13 11 10 11 11 9 9 8 9 8 9 8 8
3 3 3 3 3 3 5 6 7 7 7 9 8 7 6 4 4 6 4 5 6 7 10 9 11 13 11 11 11 12 13 13 12 10 11 12 12 10 8 7 8 8 7 7 9
4 3 3 3 3 4 6 7 6 6 8 6 6 6 5 5 7 6 4 7 8 10 9 11 13 10 8 10 11 11 13 13 12 10 12 12 12 10 9 8 7 7 7 7 6
4 4 3 3 3 5 7 5 4 6 9 6 5 6 5 6 7 7 6 7 9 10 10 12 10 8 9 11 11 12 13 13 13 11 11 12 14 12 9 8 7 7 7 6 6
4 4 4 4 5 6 5 3 6 5 11 9 7 6 6 7 7 4 5 6 8 10 10 10 8 9 10 11 11 14 11 11 11 13 16 12 18 13 11 10 8 7 7 7 6
4 4 4 4 7 6 4 5 5 4 17 8 9 6 7 8 7 5 4 6 9 9 9 10 10 10 11 10 10 12 10 11 11 14 16 14 16 14 11 11 9 8 7 6 6
4 4 5 5 6 5 4 6 4 11 16 10 9 9 9 8 7 6 6 5 6 8 9 10 8 9 10 9 9 9 11 13 14 15 18 15 14 15 12 11 10 8 7 6 6
5 5 6 4 6 5 5 7 11 15 8 10 10 9 10 9 8 7 8 9 11 13 13 11 10 9 8 11 10 12 15 19 19 19 18 14 14 14 10 9 8 8 7 6 6
5 6 6 4 5 4 6 9 15 10 10 7 8 9 10 8 9 8 9 11 9 10 13 14 14 10 9 11 12 13 14 18 20 20 17 13 16 14 9 8 7 7 7 7 6
6 5 4 4 3 4 7 12 13 11 9 9 10 11 11 9 9 9 10 10 9 10 13 14 13 9 9 9 10 12 14 12 15 16 18 16 13 10 9 9 9 8 7 7 7
7 5 5 3 3 4 8 12 11 8 8 9 12 10 12 11 11 11 11 8 9 8 10 12 15 10 8 9 9 10 10 15 15 20 21 17 16 15 11 10 9 9 8 8 7
5 7 4 4 4 7 12 11 10 8 7 9 11 11 10 11 11 11 10 8 7 9 9 12 14 13 10 11 12 12 13 13 14 15 19 20 17 11 11 10 10 9 8 8 7
7 9 5 5 9 10 11 9 8 8 8 8 8 9 10 10 11 11 10 9 7 8 11 11 13 15 13 10 9 10 12 13 17 17 15 17 16 9 9 8 9 8 7 7 7
8 8 4 6 11 12 10 8 8 8 9 9 9 8 9 11 14 11 10 7 7 8 10 11 16 19 16 13 10 12 11 11 13 15 16 19 17 8 8 8 8 8 7 7 7
7 10 9 8 9 11 11 10 10 7 7 8 9 9 10 11 11 12 11 8 7 7 6 8 14 15 17 14 12 13 11 11 12 19 16 16 14 11 9 9 8 7 7 7 6
9 10 10 12 10 10 11 10 9 10 9 9 11 10 11 14 13 13 11 10 8 6 9 11 14 13 12 11 11 11 12 12 13 13 16 14 14 11 10 9 8 7 7 6 6
11 11 10 11 10 10 11 11 10 10 10 11 11 10 11 13 12 14 12 12 12 10 11 11 15 13 14 11 11 12 11 11 11 12 12 12 13 9 8 8 7 7 6 6 6
11 11 9 10 10 11 11 11 10 10 9 9 10 12 12 11 9 10 10 10 10 11 12 12 13 15 16 12 12 15 12 12 12 11 12 15 11 9 8 8 8 7 6 6 6